Find Starlink 11402

NORAD ID: 61874 Int'l Des: 2024-204 Owner: SPXS Country: US Constellation: starlink operational
LEOCIRCULAR

Current View

Loading 3D Globe...

About Starlink 11402

Starlink 11402 (NORAD 61874) is a starlink constellation satellite (v2 mini d2c) launched Nov 9, 2024 by SPXS of US. It operates in LEO, CIRCULAR orbit with a mass of 960.00 kg.

About Starlink 11402

Description loading...

Upcoming Passes

Passes for default location (London). Set your location on the main map for personalized predictions.

Altitude History

Loading altitude history...

Two-Line Element Set

1 61874U 24204A 26168.35545390 -.00000155 00000-0 35832-5 0 9993
2 61874 53.1593 225.3059 0001327 47.5875 312.5255 15.69711238 93153
Epoch: Jun 17, 2026 • Age: 33 hours

Current Status

Altitude 363.6 km
Velocity 7.70 km/s
Sub-Earth Point 42.78°N, 169.01°W
Launch Date Nov 9, 2024
Age 1.6 years
Type internet

Technical Details

Classification Payload
Mass 960.00 kg
Dry Mass 910.00 kg
Total Mass 960.00 kg
Length 0.30 m
Diameter 4.10 m
Span 29.00 m
Shape Box + pan
Manufacturer SPXS
Bus Type Starlink V2MD
Phase Status In Orbit
Owner/State SPXS/US

Most Searched